Location: Bli��� Lhota
(48.7570°N, 14.0120°E)
Time: 14:59:47
(UTC+00:00)

ATLAS CENTAUR R/B - Pass Details

Date: 18 September 2020
Orbit: 479 x 667 km, 64.7° (Epoch: 12 October)

Event Time Altitude Azimuth Distance (km) Brightness Sun altitude
Rises 17:48:09 0° 257° (WSW) 2,668 6.3 -7.1°
Reaches altitude 10° 17:50:47 10° 274° (W) 1,748 5.6 -7.6°
Maximum altitude 17:53:47 21° 325° (NW) 1,180 3.7 -8.0°
Drops below altitude 10° 17:56:43 10° 16° (NNE) 1,695 3.8 -8.5°
Sets 17:59:14 0° 33° (NNE) 2,563 4.5 -8.9°
